Port Hope, MI

3:41 PM EDT on July 25, 2017 (GMT -0400)
Port Hope

Weather History for KP58 - November, 2013

Change the Weather History Date:

Wednesday, November 20, 2013

  Actual Average Record
Temperature  
Mean Temperature 34 °F -  
Max Temperature 41 °F 42 °F 55 °F (2003)
Min Temperature 26 °F 33 °F 21 °F (2014)
Degree Days  
Heating Degree Days 32    
Moisture  
Dew Point 28 °F    
Average Humidity 76    
Maximum Humidity 88    
Minimum Humidity 60    
Precipitation  
Precipitation 0.00 in - - ()
Sea Level Pressure  
Sea Level Pressure 30.39 in    
Wind  
Wind Speed 6 mph (SSE)    
Max Wind Speed 18 mph    
Max Gust Speed 25 mph    
Averages and records for this station are not official NWS values.
T = Trace of Precipitation, MM = Missing Value Source: NWS Daily Summary

Daily Weather History Graph

Daily Weather History Graph

Search for Another Location

Airport or City:

Trip Planner

Search our weather history database for the weather conditions in past years. The results will help you decide how hot, cold, wet, or windy it might be!

Date:

Astronomy

Nov. 20, 2013 Rise Set
Actual Time 7:33 AM EST 5:00 PM EST
Civil Twilight 7:01 AM EST 5:32 PM EST
Nautical Twilight 6:26 AM EST 6:07 PM EST
Astronomical Twilight 5:51 AM EST 6:41 PM EST
Moon 7:42 PM EST (11/20) 9:57 AM EST (11/20)
Length of Visible Light 10h 30m
Length of Day
9h 27m
Waning Gibbous, 91% of the Moon is Illuminated
Nov 20
Waning Gibbous
Nov 25
Last Quarter
Dec 2
New
Dec 9
First Quarter
Dec 17
Full

Hourly Weather History & Observations

Time (EST) Temp. Windchill Dew Point Humidity Pressure Visibility Wind Dir Wind Speed Gust Speed Precip Events Conditions
12:51 AM 27.0 °F 23.0 °F 21.9 °F 81% 30.44 in - SSE 3.5 mph - N/A   Unknown
1:51 AM 26.1 °F - 23.0 °F 88% 30.45 in - Calm Calm - N/A   Unknown
2:51 AM 28.0 °F 24.2 °F 24.1 °F 85% 30.45 in - South 3.5 mph - N/A   Unknown
3:51 AM 27.0 °F - 23.0 °F 85% 30.46 in - Calm Calm - N/A   Unknown
4:51 AM 27.0 °F 21.6 °F 23.0 °F 85% 30.47 in - SSW 4.6 mph - N/A   Unknown
5:51 AM 28.0 °F 22.8 °F 24.1 °F 85% 30.47 in - South 4.6 mph - N/A   Unknown
6:51 AM 26.1 °F - 23.0 °F 88% 30.47 in - Calm Calm - N/A   Unknown
7:51 AM 28.9 °F 25.2 °F 25.0 °F 85% 30.48 in - Variable 3.5 mph - N/A   Unknown
8:51 AM 33.1 °F 28.7 °F 28.0 °F 82% 30.47 in - Variable 4.6 mph - N/A   Unknown
9:51 AM 36.0 °F 29.0 °F 30.0 °F 79% 30.47 in - SSE 9.2 mph - N/A   Unknown
10:51 AM 37.0 °F 30.4 °F 30.9 °F 79% 30.45 in - SSE 9.2 mph 20.7 mph N/A   Unknown
11:51 AM 37.9 °F 30.0 °F 32.0 °F 79% 30.42 in - SSE 12.7 mph 23.0 mph N/A   Unknown
12:51 PM 39.9 °F 31.8 °F 32.0 °F 73% 30.39 in - SE 15.0 mph 23.0 mph N/A   Unknown
1:51 PM 39.0 °F 33.4 °F 30.9 °F 73% 30.38 in - SSE 8.1 mph 19.6 mph N/A   Unknown
2:51 PM 39.9 °F 34.5 °F 30.9 °F 70% 30.36 in - SSE 8.1 mph 20.7 mph N/A   Unknown
3:51 PM 39.9 °F 33.9 °F 28.9 °F 65% 30.35 in - SE 9.2 mph - N/A   Unknown
4:51 PM 39.9 °F 32.5 °F 28.0 °F 63% 30.32 in - SE 12.7 mph 19.6 mph N/A   Unknown
5:51 PM 41.0 °F 33.1 °F 28.9 °F 62% 30.30 in - SE 15.0 mph - N/A   Unknown
6:51 PM 41.0 °F 33.1 °F 28.0 °F 60% 30.31 in - SE 15.0 mph 20.7 mph N/A   Unknown
7:51 PM 39.9 °F 30.8 °F 28.9 °F 65% 30.30 in - SE 18.4 mph 25.3 mph N/A   Unknown
8:51 PM 39.0 °F 32.8 °F 30.0 °F 70% 30.30 in - SSE 9.2 mph - N/A   Unknown
9:51 PM 39.0 °F 31.8 °F 30.0 °F 70% 30.28 in - SE 11.5 mph 19.6 mph N/A   Unknown
10:51 PM 39.0 °F 34.0 °F 30.9 °F 73% 30.28 in - SSE 6.9 mph - N/A   Unknown
11:51 PM 39.9 °F 35.1 °F 30.9 °F 70% 30.27 in - SSE 6.9 mph - N/A   Unknown